Year,Month,Day,Hour,Minute,Value (Times are PST for windgust in km/hr)
2022,01,01,00,00,9.60
2022,01,01,00,01,12.90
2022,01,01,00,02,8.10
2022,01,01,00,03,3.20
2022,01,01,00,04,3.20
2022,01,01,00,05,3.20
2022,01,01,00,06,8.10
2022,01,01,00,07,11.30
2022,01,01,00,08,6.40
2022,01,01,00,09,4.80
2022,01,01,00,10,3.20
2022,01,01,00,11,1.60
2022,01,01,00,12,1.60
2022,01,01,00,14,6.40
2022,01,01,00,15,4.80
2022,01,01,00,16,4.80
2022,01,01,00,17,6.40
2022,01,01,00,18,9.60
2022,01,01,00,19,3.20
2022,01,01,00,20,8.10
2022,01,01,00,21,8.10
2022,01,01,00,22,3.20
2022,01,01,00,23,4.80
2022,01,01,00,24,4.80
2022,01,01,00,25,3.20
2022,01,01,00,26,6.40
2022,01,01,00,27,4.80
2022,01,01,00,28,6.40
2022,01,01,00,29,8.10
2022,01,01,00,30,6.40
2022,01,01,00,31,3.20
2022,01,01,00,32,3.20
2022,01,01,00,33,4.80
2022,01,01,00,34,3.20
2022,01,01,00,35,4.80
2022,01,01,00,36,3.20
2022,01,01,00,37,8.10
2022,01,01,00,38,4.80
2022,01,01,00,39,6.40
2022,01,01,00,40,8.10
2022,01,01,00,41,8.10
2022,01,01,00,42,4.80
2022,01,01,00,43,6.40
2022,01,01,00,44,4.80
2022,01,01,00,45,4.80
2022,01,01,00,46,4.80
2022,01,01,00,47,3.20
2022,01,01,00,48,3.20
2022,01,01,00,49,4.80
2022,01,01,00,50,3.20
2022,01,01,00,51,8.10
2022,01,01,00,52,6.40
2022,01,01,00,53,4.80
2022,01,01,00,54,3.20
2022,01,01,00,55,3.20
2022,01,01,00,56,4.80
2022,01,01,00,57,6.40
2022,01,01,00,58,6.40
2022,01,01,00,59,3.20
2022,01,01,01,00,4.80
2022,01,01,01,01,6.40
2022,01,01,01,02,3.20
2022,01,01,01,03,3.20
2022,01,01,01,04,1.60
2022,01,01,01,05,4.80
2022,01,01,01,06,8.10
2022,01,01,01,07,4.80
2022,01,01,01,08,3.20
2022,01,01,01,09,6.40
2022,01,01,01,10,3.20
2022,01,01,01,11,4.80
2022,01,01,01,12,6.40
2022,01,01,01,13,4.80
2022,01,01,01,14,6.40
2022,01,01,01,15,8.10
2022,01,01,01,16,6.40
2022,01,01,01,17,8.10
2022,01,01,01,18,6.40
2022,01,01,01,19,6.40
2022,01,01,01,20,4.80
2022,01,01,01,21,6.40
2022,01,01,01,22,1.60
2022,01,01,01,23,6.40
2022,01,01,01,24,6.40
2022,01,01,01,25,6.40
2022,01,01,01,26,3.20
2022,01,01,01,27,4.80
2022,01,01,01,28,6.40
2022,01,01,01,29,3.20
2022,01,01,01,30,1.60
2022,01,01,01,31,8.10
2022,01,01,01,32,4.80
2022,01,01,01,33,1.60
2022,01,01,01,34,4.80
2022,01,01,01,35,4.80
2022,01,01,01,36,4.80
2022,01,01,01,37,4.80
2022,01,01,01,38,6.40
2022,01,01,01,39,8.10
2022,01,01,01,40,6.40
2022,01,01,01,41,6.40
2022,01,01,01,42,6.40
2022,01,01,01,43,6.40
2022,01,01,01,44,9.60
2022,01,01,01,45,9.60
2022,01,01,01,46,9.60
2022,01,01,01,47,3.20
2022,01,01,01,48,1.60
2022,01,01,01,49,3.20
2022,01,01,01,50,6.40
2022,01,01,01,51,3.20
2022,01,01,01,52,4.80
2022,01,01,01,53,3.20
2022,01,01,01,54,1.60
2022,01,01,01,55,3.20
2022,01,01,01,56,4.80
2022,01,01,01,57,8.10
2022,01,01,01,58,8.10
2022,01,01,01,59,6.40
2022,01,01,02,00,3.20
2022,01,01,02,01,1.60
2022,01,01,02,02,4.80
2022,01,01,02,03,1.60
2022,01,01,02,04,6.40
2022,01,01,02,05,4.80
2022,01,01,02,06,4.80
2022,01,01,02,07,4.80
2022,01,01,02,08,3.20
2022,01,01,02,09,1.60
2022,01,01,02,10,1.60
2022,01,01,02,11,4.80
2022,01,01,02,12,3.20
2022,01,01,02,13,3.20
2022,01,01,02,16,4.80
2022,01,01,02,17,4.80
2022,01,01,02,18,4.80
2022,01,01,02,19,3.20
2022,01,01,02,20,3.20
2022,01,01,02,21,4.80
2022,01,01,02,22,4.80
2022,01,01,02,23,3.20
2022,01,01,02,24,3.20
2022,01,01,02,25,3.20
2022,01,01,02,26,4.80
2022,01,01,02,27,4.80
2022,01,01,02,28,1.60
2022,01,01,02,29,3.20
2022,01,01,02,30,6.40
2022,01,01,02,31,4.80
2022,01,01,02,32,4.80
2022,01,01,02,33,4.80
2022,01,01,02,34,6.40
2022,01,01,02,35,6.40
2022,01,01,02,36,3.20
2022,01,01,02,37,4.80
2022,01,01,02,38,4.80
2022,01,01,02,39,4.80
2022,01,01,02,40,3.20
2022,01,01,02,41,3.20
2022,01,01,02,42,3.20
2022,01,01,02,44,1.60
2022,01,01,02,45,4.80
2022,01,01,02,46,1.60
2022,01,01,02,47,3.20
2022,01,01,02,48,1.60
2022,01,01,02,49,3.20
2022,01,01,02,50,4.80
2022,01,01,02,51,4.80
2022,01,01,02,52,6.40
2022,01,01,02,53,4.80
2022,01,01,02,54,6.40
2022,01,01,02,55,8.10
2022,01,01,02,56,4.80
2022,01,01,02,57,4.80
2022,01,01,02,58,4.80
2022,01,01,02,59,3.20
2022,01,01,03,00,1.60
2022,01,01,03,04,4.80
2022,01,01,03,05,4.80
2022,01,01,03,06,3.20
2022,01,01,03,07,3.20
2022,01,01,03,08,3.20
2022,01,01,03,09,4.80
2022,01,01,03,10,3.20
2022,01,01,03,11,3.20
2022,01,01,03,12,1.60
2022,01,01,03,13,4.80
2022,01,01,03,14,3.20
2022,01,01,03,15,1.60
2022,01,01,03,16,1.60
2022,01,01,03,17,4.80
2022,01,01,03,18,3.20
2022,01,01,03,19,4.80
2022,01,01,03,20,4.80
2022,01,01,03,21,1.60
2022,01,01,03,22,3.20
2022,01,01,03,23,3.20
2022,01,01,03,24,4.80
2022,01,01,03,25,1.60
2022,01,01,03,26,3.20
2022,01,01,03,27,1.60
2022,01,01,03,28,3.20
2022,01,01,03,29,4.80
2022,01,01,03,30,3.20
2022,01,01,03,31,4.80
2022,01,01,03,32,3.20
2022,01,01,03,33,6.40
2022,01,01,03,34,4.80
2022,01,01,03,35,6.40
2022,01,01,03,36,3.20
2022,01,01,03,37,1.60
2022,01,01,03,38,6.40
2022,01,01,03,39,4.80
2022,01,01,03,40,1.60
2022,01,01,03,41,6.40
2022,01,01,03,42,4.80
2022,01,01,03,43,3.20
2022,01,01,03,46,3.20
2022,01,01,03,47,3.20
2022,01,01,03,48,6.40
2022,01,01,03,49,4.80
2022,01,01,03,50,1.60
2022,01,01,03,51,4.80
2022,01,01,03,52,3.20
2022,01,01,03,54,4.80
2022,01,01,03,55,4.80
2022,01,01,03,56,3.20
2022,01,01,03,57,3.20
2022,01,01,03,58,3.20
2022,01,01,03,59,3.20
2022,01,01,04,00,1.60
2022,01,01,04,01,1.60
2022,01,01,04,02,3.20
2022,01,01,04,03,4.80
2022,01,01,04,04,3.20
2022,01,01,04,05,3.20
2022,01,01,04,07,1.60
2022,01,01,04,08,3.20
2022,01,01,04,09,3.20
2022,01,01,04,10,3.20
2022,01,01,04,11,1.60
2022,01,01,04,12,3.20
2022,01,01,04,13,3.20
2022,01,01,04,14,3.20
2022,01,01,04,15,3.20
2022,01,01,04,18,4.80
2022,01,01,04,19,1.60
2022,01,01,04,20,3.20
2022,01,01,04,21,3.20
2022,01,01,04,22,1.60
2022,01,01,04,23,4.80
2022,01,01,04,24,3.20
2022,01,01,04,25,3.20
2022,01,01,04,26,3.20
2022,01,01,04,27,3.20
2022,01,01,04,28,4.80
2022,01,01,04,29,3.20
2022,01,01,04,30,3.20
2022,01,01,04,31,4.80
2022,01,01,04,32,3.20
2022,01,01,04,33,4.80
2022,01,01,04,34,3.20
2022,01,01,04,35,1.60
2022,01,01,04,36,3.20
2022,01,01,04,37,1.60
2022,01,01,04,38,3.20
2022,01,01,04,39,3.20
2022,01,01,04,40,3.20
2022,01,01,04,41,3.20
2022,01,01,04,42,4.80
2022,01,01,04,43,3.20
2022,01,01,04,44,4.80
2022,01,01,04,45,1.60
2022,01,01,04,46,3.20
2022,01,01,04,47,1.60
2022,01,01,04,48,1.60
2022,01,01,04,49,3.20
2022,01,01,04,50,3.20
2022,01,01,04,51,3.20
2022,01,01,04,52,3.20
2022,01,01,04,53,3.20
2022,01,01,04,54,1.60
2022,01,01,04,55,3.20
2022,01,01,04,57,1.60
2022,01,01,04,58,1.60
2022,01,01,04,59,1.60
2022,01,01,05,00,3.20
2022,01,01,05,01,1.60
2022,01,01,05,02,1.60
2022,01,01,05,03,3.20
2022,01,01,05,04,4.80
2022,01,01,05,05,4.80
2022,01,01,05,06,3.20
2022,01,01,05,07,4.80
2022,01,01,05,08,3.20
2022,01,01,05,09,4.80
2022,01,01,05,10,3.20
2022,01,01,05,11,1.60
2022,01,01,05,12,1.60
2022,01,01,05,13,1.60
2022,01,01,05,14,3.20
2022,01,01,05,15,1.60
2022,01,01,05,16,4.80
2022,01,01,05,17,3.20
2022,01,01,05,18,4.80
2022,01,01,05,19,1.60
2022,01,01,05,20,1.60
2022,01,01,05,21,1.60
2022,01,01,05,22,1.60
2022,01,01,05,23,3.20
2022,01,01,05,24,4.80
2022,01,01,05,25,4.80
2022,01,01,05,26,4.80
2022,01,01,05,27,6.40
2022,01,01,05,28,4.80
2022,01,01,05,29,6.40
2022,01,01,05,30,3.20
2022,01,01,05,31,3.20
2022,01,01,05,32,3.20
2022,01,01,05,33,3.20
2022,01,01,05,34,3.20
2022,01,01,05,35,3.20
2022,01,01,05,36,3.20
2022,01,01,05,37,3.20
2022,01,01,05,38,3.20
2022,01,01,05,39,3.20
2022,01,01,05,40,3.20
2022,01,01,05,41,1.60
2022,01,01,05,42,1.60
2022,01,01,05,43,1.60
2022,01,01,05,45,1.60
2022,01,01,05,46,4.80
2022,01,01,05,47,3.20
2022,01,01,05,48,3.20
2022,01,01,05,49,4.80
2022,01,01,05,50,1.60
2022,01,01,05,51,1.60
2022,01,01,05,52,1.60
2022,01,01,05,55,1.60
2022,01,01,05,56,3.20
2022,01,01,05,57,1.60
2022,01,01,05,58,1.60
2022,01,01,05,59,1.60
2022,01,01,06,00,3.20
2022,01,01,06,01,1.60
2022,01,01,06,02,3.20
2022,01,01,06,03,1.60
2022,01,01,06,06,3.20
2022,01,01,06,07,3.20
2022,01,01,06,08,3.20
2022,01,01,06,09,3.20
2022,01,01,06,10,3.20
2022,01,01,06,11,4.80
2022,01,01,06,12,3.20
2022,01,01,06,13,3.20
2022,01,01,06,14,4.80
2022,01,01,06,15,4.80
2022,01,01,06,16,3.20
2022,01,01,06,17,4.80
2022,01,01,06,18,3.20
2022,01,01,06,19,1.60
2022,01,01,06,20,3.20
2022,01,01,06,21,1.60
2022,01,01,06,22,3.20
2022,01,01,06,23,3.20
2022,01,01,06,24,1.60
2022,01,01,06,35,3.20
2022,01,01,06,36,3.20
2022,01,01,06,37,3.20
2022,01,01,06,38,1.60
2022,01,01,06,39,3.20
2022,01,01,06,40,3.20
2022,01,01,06,41,3.20
2022,01,01,06,42,3.20
2022,01,01,06,43,3.20
2022,01,01,06,44,3.20
2022,01,01,06,45,3.20
2022,01,01,06,46,3.20
2022,01,01,06,47,3.20
2022,01,01,06,48,3.20
2022,01,01,06,49,3.20
2022,01,01,06,50,3.20
2022,01,01,06,51,3.20
2022,01,01,06,52,4.80
2022,01,01,06,53,3.20
2022,01,01,06,54,1.60
2022,01,01,06,56,3.20
2022,01,01,06,57,3.20
2022,01,01,06,58,3.20
2022,01,01,06,59,3.20
2022,01,01,07,00,3.20
2022,01,01,07,01,3.20
2022,01,01,07,02,3.20
2022,01,01,07,03,3.20
2022,01,01,07,04,3.20
2022,01,01,07,05,4.80
2022,01,01,07,06,3.20
2022,01,01,07,07,6.40
2022,01,01,07,08,8.10
2022,01,01,07,09,6.40
2022,01,01,07,10,6.40
2022,01,01,07,11,4.80
2022,01,01,07,12,3.20
2022,01,01,07,13,4.80
2022,01,01,07,14,3.20
2022,01,01,07,15,4.80
2022,01,01,07,16,3.20
2022,01,01,07,17,3.20
2022,01,01,07,18,4.80
2022,01,01,07,19,3.20
2022,01,01,07,20,1.60
2022,01,01,07,21,1.60
2022,01,01,07,22,3.20
2022,01,01,07,23,3.20
2022,01,01,07,24,4.80
2022,01,01,07,25,4.80
2022,01,01,07,26,4.80
2022,01,01,07,27,4.80
2022,01,01,07,28,4.80
2022,01,01,07,29,4.80
2022,01,01,07,30,3.20
2022,01,01,07,31,3.20
2022,01,01,07,32,4.80
2022,01,01,07,33,4.80
2022,01,01,07,34,6.40
2022,01,01,07,35,4.80
2022,01,01,07,36,4.80
2022,01,01,07,37,3.20
2022,01,01,07,38,3.20
2022,01,01,07,39,3.20
2022,01,01,07,40,6.40
2022,01,01,07,41,6.40
2022,01,01,07,42,8.10
2022,01,01,07,43,4.80
2022,01,01,07,44,6.40
2022,01,01,07,45,6.40
2022,01,01,07,46,4.80
2022,01,01,07,47,6.40
2022,01,01,07,48,6.40
2022,01,01,07,49,6.40
2022,01,01,07,50,6.40
2022,01,01,07,51,4.80
2022,01,01,07,52,11.30
2022,01,01,07,53,9.60
2022,01,01,07,54,9.60
2022,01,01,07,55,9.60
2022,01,01,07,56,8.10
2022,01,01,07,57,11.30
2022,01,01,07,58,4.80
2022,01,01,07,59,4.80
2022,01,01,08,00,6.40
2022,01,01,08,01,4.80
2022,01,01,08,02,6.40
2022,01,01,08,03,4.80
2022,01,01,08,04,3.20
2022,01,01,08,05,3.20
2022,01,01,08,06,4.80
2022,01,01,08,07,4.80
2022,01,01,08,08,3.20
2022,01,01,08,09,3.20
2022,01,01,08,10,6.40
2022,01,01,08,11,6.40
2022,01,01,08,12,4.80
2022,01,01,08,13,4.80
2022,01,01,08,14,3.20
2022,01,01,08,15,1.60
2022,01,01,08,16,4.80
2022,01,01,08,17,4.80
2022,01,01,08,18,4.80
2022,01,01,08,19,4.80
2022,01,01,08,20,6.40
2022,01,01,08,21,4.80
2022,01,01,08,22,3.20
2022,01,01,08,23,3.20
2022,01,01,08,24,1.60
2022,01,01,08,25,3.20
2022,01,01,08,26,6.40
2022,01,01,08,27,8.10
2022,01,01,08,28,4.80
2022,01,01,08,29,4.80
2022,01,01,08,30,4.80
2022,01,01,08,31,4.80
2022,01,01,08,32,6.40
2022,01,01,08,33,3.20
2022,01,01,08,34,3.20
2022,01,01,08,35,4.80
2022,01,01,08,36,14.50
2022,01,01,08,37,14.50
2022,01,01,08,38,11.30
2022,01,01,08,39,11.30
2022,01,01,08,40,19.30
2022,01,01,08,41,20.90
2022,01,01,08,42,22.50
2022,01,01,08,43,19.30
2022,01,01,08,44,19.30
2022,01,01,08,45,17.70
2022,01,01,08,46,17.70
2022,01,01,08,47,22.50
2022,01,01,08,48,22.50
2022,01,01,08,49,14.50
2022,01,01,08,50,16.10
2022,01,01,08,51,16.10
2022,01,01,08,52,17.70
2022,01,01,08,53,12.90
2022,01,01,08,54,14.50
2022,01,01,08,55,11.30
2022,01,01,08,56,9.60
2022,01,01,08,57,20.90
2022,01,01,08,58,16.10
2022,01,01,08,59,16.10
2022,01,01,09,00,14.50
2022,01,01,09,01,12.90
2022,01,01,09,02,14.50
2022,01,01,09,03,14.50
2022,01,01,09,04,14.50
2022,01,01,09,05,17.70
2022,01,01,09,06,19.30
2022,01,01,09,07,19.30
2022,01,01,09,08,16.10
2022,01,01,09,09,14.50
2022,01,01,09,10,16.10
2022,01,01,09,11,19.30
2022,01,01,09,12,17.70
2022,01,01,09,13,17.70
2022,01,01,09,14,17.70
2022,01,01,09,15,17.70
2022,01,01,09,16,16.10
2022,01,01,09,17,17.70
2022,01,01,09,18,17.70
2022,01,01,09,19,17.70
2022,01,01,09,20,17.70
2022,01,01,09,21,19.30
2022,01,01,09,22,19.30
2022,01,01,09,23,17.70
2022,01,01,09,24,19.30
2022,01,01,09,25,17.70
2022,01,01,09,26,16.10
2022,01,01,09,27,20.90
2022,01,01,09,28,22.50
2022,01,01,09,29,20.90
2022,01,01,09,30,17.70
2022,01,01,09,31,17.70
2022,01,01,09,32,14.50
2022,01,01,09,33,14.50
2022,01,01,09,34,16.10
2022,01,01,09,35,12.90
2022,01,01,09,36,19.30
2022,01,01,09,37,16.10
2022,01,01,09,38,22.50
2022,01,01,09,39,14.50
2022,01,01,09,40,17.70
2022,01,01,09,41,19.30
2022,01,01,09,42,22.50
2022,01,01,09,43,14.50
2022,01,01,09,44,14.50
2022,01,01,09,45,17.70
2022,01,01,09,46,17.70
2022,01,01,09,47,16.10
2022,01,01,09,48,16.10
2022,01,01,09,49,14.50
2022,01,01,09,50,16.10
2022,01,01,09,51,17.70
2022,01,01,09,52,20.90
2022,01,01,09,53,20.90
2022,01,01,09,54,20.90
2022,01,01,09,55,17.70
2022,01,01,09,56,19.30
2022,01,01,09,57,19.30
2022,01,01,09,58,22.50
2022,01,01,09,59,20.90
2022,01,01,10,00,20.90
2022,01,01,10,01,20.90
2022,01,01,10,02,25.70
2022,01,01,10,03,25.70
2022,01,01,10,04,20.90
2022,01,01,10,05,22.50
2022,01,01,10,06,20.90
2022,01,01,10,07,19.30
2022,01,01,10,08,17.70
2022,01,01,10,09,19.30
2022,01,01,10,10,16.10
2022,01,01,10,11,20.90
2022,01,01,10,12,22.50
2022,01,01,10,13,19.30
2022,01,01,10,14,17.70
2022,01,01,10,15,17.70
2022,01,01,10,16,20.90
2022,01,01,10,17,22.50
2022,01,01,10,18,20.90
2022,01,01,10,19,24.20
2022,01,01,10,20,22.50
2022,01,01,10,21,22.50
2022,01,01,10,22,17.70
2022,01,01,10,23,17.70
2022,01,01,10,24,20.90
2022,01,01,10,25,17.70
2022,01,01,10,26,17.70
2022,01,01,10,27,17.70
2022,01,01,10,28,19.30
2022,01,01,10,29,20.90
2022,01,01,10,30,17.70
2022,01,01,10,31,17.70
2022,01,01,10,32,17.70
2022,01,01,10,33,16.10
2022,01,01,10,34,17.70
2022,01,01,10,35,16.10
2022,01,01,10,36,17.70
2022,01,01,10,37,14.50
2022,01,01,10,38,25.70
2022,01,01,10,39,22.50
2022,01,01,10,40,19.30
2022,01,01,10,41,16.10
2022,01,01,10,42,17.70
2022,01,01,10,43,22.50
2022,01,01,10,44,19.30
2022,01,01,10,45,20.90
2022,01,01,10,46,17.70
2022,01,01,10,47,19.30
2022,01,01,10,48,16.10
2022,01,01,10,49,19.30
2022,01,01,10,50,17.70
2022,01,01,10,51,17.70
2022,01,01,10,52,19.30
2022,01,01,10,53,17.70
2022,01,01,10,54,19.30
2022,01,01,10,55,16.10
2022,01,01,10,56,16.10
2022,01,01,10,57,14.50
2022,01,01,10,58,19.30
2022,01,01,10,59,20.90
2022,01,01,11,00,19.30
2022,01,01,11,01,17.70
2022,01,01,11,02,16.10
2022,01,01,11,03,17.70
2022,01,01,11,04,19.30
2022,01,01,11,05,16.10
2022,01,01,11,06,16.10
2022,01,01,11,07,19.30
2022,01,01,11,08,16.10
2022,01,01,11,09,19.30
2022,01,01,11,10,20.90
2022,01,01,11,11,20.90
2022,01,01,11,12,19.30
2022,01,01,11,13,17.70
2022,01,01,11,14,19.30
2022,01,01,11,15,20.90
2022,01,01,11,16,19.30
2022,01,01,11,17,22.50
2022,01,01,11,18,24.20
2022,01,01,11,19,22.50
2022,01,01,11,20,19.30
2022,01,01,11,21,17.70
2022,01,01,11,22,19.30
2022,01,01,11,23,19.30
2022,01,01,11,24,17.70
2022,01,01,11,25,14.50
2022,01,01,11,26,16.10
2022,01,01,11,27,19.30
2022,01,01,11,28,22.50
2022,01,01,11,29,22.50
2022,01,01,11,30,22.50
2022,01,01,11,31,22.50
2022,01,01,11,32,19.30
2022,01,01,11,33,20.90
2022,01,01,11,34,17.70
2022,01,01,11,35,19.30
2022,01,01,11,36,20.90
2022,01,01,11,37,17.70
2022,01,01,11,38,19.30
2022,01,01,11,39,24.20
2022,01,01,11,40,20.90
2022,01,01,11,41,17.70
2022,01,01,11,42,17.70
2022,01,01,11,43,19.30
2022,01,01,11,44,19.30
2022,01,01,11,45,19.30
2022,01,01,11,46,19.30
2022,01,01,11,47,22.50
2022,01,01,11,48,24.20
2022,01,01,11,49,24.20
2022,01,01,11,50,16.10
2022,01,01,11,51,20.90
2022,01,01,11,52,19.30
2022,01,01,11,53,17.70
2022,01,01,11,54,19.30
2022,01,01,11,55,17.70
2022,01,01,11,56,17.70
2022,01,01,11,57,19.30
2022,01,01,11,58,20.90
2022,01,01,11,59,19.30
2022,01,01,12,00,19.30
2022,01,01,12,01,20.90
2022,01,01,12,02,24.20
2022,01,01,12,03,22.50
2022,01,01,12,04,20.90
2022,01,01,12,05,20.90
2022,01,01,12,06,22.50
2022,01,01,12,07,22.50
2022,01,01,12,08,20.90
2022,01,01,12,09,17.70
2022,01,01,12,10,20.90
2022,01,01,12,11,19.30
2022,01,01,12,12,17.70
2022,01,01,12,13,14.50
2022,01,01,12,14,14.50
2022,01,01,12,15,17.70
2022,01,01,12,16,14.50
2022,01,01,12,17,19.30
2022,01,01,12,18,19.30
2022,01,01,12,19,22.50
2022,01,01,12,20,22.50
2022,01,01,12,21,25.70
2022,01,01,12,22,25.70
2022,01,01,12,23,24.20
2022,01,01,12,24,22.50
2022,01,01,12,25,19.30
2022,01,01,12,26,19.30
2022,01,01,12,27,20.90
2022,01,01,12,28,20.90
2022,01,01,12,29,22.50
2022,01,01,12,30,19.30
2022,01,01,12,31,25.70
2022,01,01,12,32,20.90
2022,01,01,12,33,20.90
2022,01,01,12,34,19.30
2022,01,01,12,35,19.30
2022,01,01,12,36,19.30
2022,01,01,12,37,20.90
2022,01,01,12,38,24.20
2022,01,01,12,39,20.90
2022,01,01,12,40,20.90
2022,01,01,12,41,19.30
2022,01,01,12,42,19.30
2022,01,01,12,43,20.90
2022,01,01,12,44,24.20
2022,01,01,12,45,19.30
2022,01,01,12,46,24.20
2022,01,01,12,47,24.20
2022,01,01,12,48,22.50
2022,01,01,12,49,20.90
2022,01,01,12,50,20.90
2022,01,01,12,51,19.30
2022,01,01,12,52,19.30
2022,01,01,12,53,17.70
2022,01,01,12,54,16.10
2022,01,01,12,55,14.50
2022,01,01,12,56,16.10
2022,01,01,12,57,14.50
2022,01,01,12,58,12.90
2022,01,01,12,59,17.70
2022,01,01,13,00,17.70
2022,01,01,13,01,17.70
2022,01,01,13,02,20.90
2022,01,01,13,03,20.90
2022,01,01,13,04,19.30
2022,01,01,13,05,20.90
2022,01,01,13,06,17.70
2022,01,01,13,07,16.10
2022,01,01,13,08,22.50
2022,01,01,13,09,22.50
2022,01,01,13,10,20.90
2022,01,01,13,11,17.70
2022,01,01,13,12,17.70
2022,01,01,13,13,16.10
2022,01,01,13,14,16.10
2022,01,01,13,15,14.50
2022,01,01,13,16,16.10
2022,01,01,13,17,14.50
2022,01,01,13,18,17.70
2022,01,01,13,19,19.30
2022,01,01,13,20,22.50
2022,01,01,13,21,16.10
2022,01,01,13,22,14.50
2022,01,01,13,23,16.10
2022,01,01,13,24,14.50
2022,01,01,13,25,12.90
2022,01,01,13,26,17.70
2022,01,01,13,27,16.10
2022,01,01,13,28,19.30
2022,01,01,13,29,19.30
2022,01,01,13,30,17.70
2022,01,01,13,31,19.30
2022,01,01,13,32,19.30
2022,01,01,13,33,20.90
2022,01,01,13,34,24.20
2022,01,01,13,35,20.90
2022,01,01,13,36,17.70
2022,01,01,13,37,20.90
2022,01,01,13,38,19.30
2022,01,01,13,39,19.30
2022,01,01,13,40,20.90
2022,01,01,13,41,16.10
2022,01,01,13,42,17.70
2022,01,01,13,43,16.10
2022,01,01,13,44,12.90
2022,01,01,13,45,16.10
2022,01,01,13,46,16.10
2022,01,01,13,47,17.70
2022,01,01,13,48,17.70
2022,01,01,13,49,24.20
2022,01,01,13,50,22.50
2022,01,01,13,51,20.90
2022,01,01,13,52,17.70
2022,01,01,13,53,24.20
2022,01,01,13,54,19.30
2022,01,01,13,55,20.90
2022,01,01,13,56,19.30
2022,01,01,13,57,22.50
2022,01,01,13,58,17.70
2022,01,01,13,59,20.90
2022,01,01,14,00,19.30
2022,01,01,14,01,17.70
2022,01,01,14,02,19.30
2022,01,01,14,03,17.70
2022,01,01,14,04,20.90
2022,01,01,14,05,20.90
2022,01,01,14,06,17.70
2022,01,01,14,07,17.70
2022,01,01,14,08,19.30
2022,01,01,14,09,22.50
2022,01,01,14,10,24.20
2022,01,01,14,11,20.90
2022,01,01,14,12,20.90
2022,01,01,14,13,17.70
2022,01,01,14,14,16.10
2022,01,01,14,15,16.10
2022,01,01,14,16,19.30
2022,01,01,14,17,16.10
2022,01,01,14,18,16.10
2022,01,01,14,19,14.50
2022,01,01,14,20,16.10
2022,01,01,14,21,17.70
2022,01,01,14,22,16.10
2022,01,01,14,23,16.10
2022,01,01,14,24,17.70
2022,01,01,14,25,16.10
2022,01,01,14,26,14.50
2022,01,01,14,27,17.70
2022,01,01,14,28,19.30
2022,01,01,14,29,17.70
2022,01,01,14,30,16.10
2022,01,01,14,31,16.10
2022,01,01,14,32,16.10
2022,01,01,14,33,19.30
2022,01,01,14,34,19.30
2022,01,01,14,35,20.90
2022,01,01,14,36,17.70
2022,01,01,14,37,17.70
2022,01,01,14,38,16.10
2022,01,01,14,39,16.10
2022,01,01,14,40,16.10
2022,01,01,14,41,19.30
2022,01,01,14,42,14.50
2022,01,01,14,43,14.50
2022,01,01,14,44,16.10
2022,01,01,14,45,12.90
2022,01,01,14,46,11.30
2022,01,01,14,47,17.70
2022,01,01,14,48,14.50
2022,01,01,14,49,16.10
2022,01,01,14,50,16.10
2022,01,01,14,51,14.50
2022,01,01,14,52,17.70
2022,01,01,14,53,17.70
2022,01,01,14,54,17.70
2022,01,01,14,55,14.50
2022,01,01,14,56,11.30
2022,01,01,14,57,14.50
2022,01,01,14,58,14.50
2022,01,01,14,59,17.70
2022,01,01,15,00,17.70
2022,01,01,15,01,19.30
2022,01,01,15,02,19.30
2022,01,01,15,03,16.10
2022,01,01,15,04,17.70
2022,01,01,15,05,16.10
2022,01,01,15,06,16.10
2022,01,01,15,07,14.50
2022,01,01,15,08,17.70
2022,01,01,15,09,14.50
2022,01,01,15,10,16.10
2022,01,01,15,11,16.10
2022,01,01,15,12,19.30
2022,01,01,15,13,17.70
2022,01,01,15,14,17.70
2022,01,01,15,15,14.50
2022,01,01,15,16,16.10
2022,01,01,15,17,19.30
2022,01,01,15,18,24.20
2022,01,01,15,19,22.50
2022,01,01,15,20,20.90
2022,01,01,15,21,17.70
2022,01,01,15,22,20.90
2022,01,01,15,23,24.20
2022,01,01,15,24,22.50
2022,01,01,15,25,20.90
2022,01,01,15,26,19.30
2022,01,01,15,27,20.90
2022,01,01,15,28,20.90
2022,01,01,15,29,17.70
2022,01,01,15,30,19.30
2022,01,01,15,31,20.90
2022,01,01,15,32,19.30
2022,01,01,15,33,22.50
2022,01,01,15,34,20.90
2022,01,01,15,35,24.20
2022,01,01,15,36,24.20
2022,01,01,15,37,20.90
2022,01,01,15,38,25.70
2022,01,01,15,39,22.50
2022,01,01,15,40,20.90
2022,01,01,15,41,27.40
2022,01,01,15,42,22.50
2022,01,01,15,43,19.30
2022,01,01,15,44,19.30
2022,01,01,15,45,20.90
2022,01,01,15,46,20.90
2022,01,01,15,47,25.70
2022,01,01,15,48,27.40
2022,01,01,15,49,27.40
2022,01,01,15,50,24.20
2022,01,01,15,51,25.70
2022,01,01,15,52,27.40
2022,01,01,15,53,32.20
2022,01,01,15,54,20.90
2022,01,01,15,55,20.90
2022,01,01,15,56,19.30
2022,01,01,15,57,24.20
2022,01,01,15,58,27.40
2022,01,01,15,59,27.40
2022,01,01,16,00,25.70
2022,01,01,16,01,25.70
2022,01,01,16,02,27.40
2022,01,01,16,03,22.50
2022,01,01,16,04,19.30
2022,01,01,16,05,24.20
2022,01,01,16,06,20.90
2022,01,01,16,07,20.90
2022,01,01,16,08,19.30
2022,01,01,16,09,25.70
2022,01,01,16,10,24.20
2022,01,01,16,11,24.20
2022,01,01,16,12,24.20
2022,01,01,16,13,25.70
2022,01,01,16,14,22.50
2022,01,01,16,15,30.60
2022,01,01,16,16,30.60
2022,01,01,16,17,27.40
2022,01,01,16,18,27.40
2022,01,01,16,19,25.70
2022,01,01,16,20,20.90
2022,01,01,16,21,20.90
2022,01,01,16,22,25.70
2022,01,01,16,23,25.70
2022,01,01,16,24,27.40
2022,01,01,16,25,29.00
2022,01,01,16,26,29.00
2022,01,01,16,27,24.20
2022,01,01,16,28,25.70
2022,01,01,16,29,25.70
2022,01,01,16,30,27.40
2022,01,01,16,31,25.70
2022,01,01,16,32,30.60
2022,01,01,16,33,29.00
2022,01,01,16,34,27.40
2022,01,01,16,35,27.40
2022,01,01,16,36,27.40
2022,01,01,16,37,24.20
2022,01,01,16,38,22.50
2022,01,01,16,39,19.30
2022,01,01,16,40,14.50
2022,01,01,16,41,20.90
2022,01,01,16,42,20.90
2022,01,01,16,43,25.70
2022,01,01,16,44,24.20
2022,01,01,16,45,24.20
2022,01,01,16,46,27.40
2022,01,01,16,47,27.40
2022,01,01,16,48,29.00
2022,01,01,16,49,25.70
2022,01,01,16,50,25.70
2022,01,01,16,51,25.70
2022,01,01,16,52,25.70
2022,01,01,16,53,22.50
2022,01,01,16,54,27.40
2022,01,01,16,55,24.20
2022,01,01,16,56,25.70
2022,01,01,16,57,24.20
2022,01,01,16,58,24.20
2022,01,01,16,59,24.20
2022,01,01,17,00,27.40
2022,01,01,17,01,24.20
2022,01,01,17,02,35.40
2022,01,01,17,03,30.60
2022,01,01,17,04,32.20
2022,01,01,17,05,27.40
2022,01,01,17,06,27.40
2022,01,01,17,07,29.00
2022,01,01,17,08,25.70
2022,01,01,17,09,24.20
2022,01,01,17,10,19.30
2022,01,01,17,11,24.20
2022,01,01,17,12,20.90
2022,01,01,17,13,27.40
2022,01,01,17,14,25.70
2022,01,01,17,15,27.40
2022,01,01,17,16,25.70
2022,01,01,17,17,27.40
2022,01,01,17,18,27.40
2022,01,01,17,19,29.00
2022,01,01,17,20,24.20
2022,01,01,17,21,29.00
2022,01,01,17,22,27.40
2022,01,01,17,23,32.20
2022,01,01,17,24,32.20
2022,01,01,17,25,27.40
2022,01,01,17,26,25.70
2022,01,01,17,27,24.20
2022,01,01,17,28,29.00
2022,01,01,17,29,32.20
2022,01,01,17,30,32.20
2022,01,01,17,31,32.20
2022,01,01,17,32,33.80
2022,01,01,17,33,30.60
2022,01,01,17,34,29.00
2022,01,01,17,35,27.40
2022,01,01,17,36,27.40
2022,01,01,17,37,29.00
2022,01,01,17,38,33.80
2022,01,01,17,39,30.60
2022,01,01,17,40,35.40
2022,01,01,17,41,30.60
2022,01,01,17,42,27.40
2022,01,01,17,43,25.70
2022,01,01,17,44,27.40
2022,01,01,17,45,32.20
2022,01,01,17,46,33.80
2022,01,01,17,47,37.00
2022,01,01,17,48,29.00
2022,01,01,17,49,27.40
2022,01,01,17,50,25.70
2022,01,01,17,51,25.70
2022,01,01,17,52,27.40
2022,01,01,17,53,32.20
2022,01,01,17,54,30.60
2022,01,01,17,55,27.40
2022,01,01,17,56,27.40
2022,01,01,17,57,25.70
2022,01,01,17,58,30.60
2022,01,01,17,59,33.80
2022,01,01,18,00,33.80
2022,01,01,18,01,32.20
2022,01,01,18,02,29.00
2022,01,01,18,03,27.40
2022,01,01,18,04,22.50
2022,01,01,18,05,30.60
2022,01,01,18,06,29.00
2022,01,01,18,07,27.40
2022,01,01,18,08,27.40
2022,01,01,18,09,29.00
2022,01,01,18,10,27.40